Location: Tierz
(42.1336°N, 0.3549°W)
Time: 05:18:04
(UTC+00:00)

Cosmos 2263 Rocket - Pass Details

Date: 29 October 2020
Orbit: 822 x 850 km, 71.0° (Epoch: 26 November)

Event Time Altitude Azimuth Distance (km) Brightness Sun altitude
Rises 18:38:10 0° 344° (NNW) 3,420 5.5 -19.0°
Reaches altitude 10° 18:41:02 10° 357° (N) 2,483 4.7 -19.5°
Enters shadow 18:45:08 26° 42° (NE) 1,634 3.3 -20.3°
